ARG1331 SACO-SABE

Flight info

Callsign ARG1331
Flight time 0h 58m
Altitude 35000
Route UTRAX1G UTRAX UW24 SNT SNT9R
Aircraft B738/M-SABDFGRVYL/LB2

Departure

Time 2026-05-09 02:55
Airport Ingeniero Aeronáutico Ambrosio L.V. Taravella International Airport (SACO)

Arrival

Time 2026-05-09 03:53
Airport Aeroparque Jorge Newbery (SABE)
Time Latitude Longitude Altitude Speed Heading
2026-05-09 02:31 -31.31295 -64.21183 1571 ft 0 kts 269°
2026-05-09 02:44 -31.31295 -64.21182 1571 ft 1 kts 267°
2026-05-09 02:44 -31.31297 -64.21165 1571 ft 2 kts 272°
2026-05-09 02:44 -31.31296 -64.21149 1571 ft 2 kts 267°
2026-05-09 02:44 -31.31296 -64.21131 1570 ft 2 kts 269°
2026-05-09 02:45 -31.31296 -64.21114 1570 ft 2 kts 268°
2026-05-09 02:45 -31.31296 -64.21104 1570 ft 1 kts 256°
2026-05-09 02:45 -31.31289 -64.21095 1569 ft 1 kts 193°
2026-05-09 02:45 -31.31283 -64.21094 1569 ft 1 kts 171°
2026-05-09 02:46 -31.31278 -64.21095 1570 ft 0 kts 178°
2026-05-09 02:48 -31.31287 -64.21095 1569 ft 3 kts 178°
2026-05-09 02:48 -31.31341 -64.21096 1569 ft 10 kts 179°
2026-05-09 02:49 -31.31425 -64.21092 1568 ft 12 kts 169°
2026-05-09 02:49 -31.31465 -64.21018 1565 ft 12 kts 90°
2026-05-09 02:49 -31.31464 -64.20909 1561 ft 13 kts 90°
2026-05-09 02:49 -31.31437 -64.20817 1559 ft 12 kts 359°
2026-05-09 02:50 -31.31352 -64.20828 1561 ft 14 kts 359°
2026-05-09 02:50 -31.31236 -64.20828 1563 ft 19 kts 359°
2026-05-09 02:50 -31.31091 -64.20833 1567 ft 21 kts 360°
2026-05-09 02:50 -31.30931 -64.20834 1572 ft 24 kts 359°
2026-05-09 02:51 -31.30745 -64.20838 1578 ft 28 kts 359°
2026-05-09 02:51 -31.30549 -64.20840 1583 ft 27 kts 359°
2026-05-09 02:51 -31.30363 -64.20843 1589 ft 25 kts 359°
2026-05-09 02:51 -31.30184 -64.20847 1594 ft 26 kts 359°
2026-05-09 02:52 -31.29998 -64.20851 1601 ft 24 kts 354°
2026-05-09 02:52 -31.29870 -64.20866 1604 ft 14 kts 358°
2026-05-09 02:52 -31.29755 -64.20870 1606 ft 19 kts 358°
2026-05-09 02:52 -31.29630 -64.20878 1609 ft 1 kts 358°
2026-05-09 02:53 -31.29627 -64.20875 1609 ft 1 kts 43°
2026-05-09 02:53 -31.29641 -64.20857 1608 ft 4 kts 172°
2026-05-09 02:53 -31.29659 -64.20856 1608 ft 0 kts 178°
2026-05-09 02:54 -31.29682 -64.20856 1607 ft 12 kts 179°
2026-05-09 02:54 -31.30032 -64.20850 1599 ft 86 kts 179°
2026-05-09 02:54 -31.30847 -64.20837 1574 ft 147 kts 179°
2026-05-09 02:54 -31.32041 -64.20837 1746 ft 179 kts 180°
2026-05-09 02:55 -31.33274 -64.20824 2339 ft 182 kts 172°
2026-05-09 02:55 -31.34466 -64.20278 2801 ft 194 kts 137°
2026-05-09 02:55 -31.35290 -64.18954 3215 ft 211 kts 120°
2026-05-09 02:55 -31.36302 -64.17597 3605 ft 232 kts 139°
2026-05-09 02:56 -31.37561 -64.16393 4266 ft 239 kts 137°
2026-05-09 02:56 -31.38823 -64.15087 4964 ft 244 kts 137°
2026-05-09 02:56 -31.40050 -64.13810 5634 ft 248 kts 137°
2026-05-09 02:56 -31.41330 -64.12476 6320 ft 252 kts 137°
2026-05-09 02:57 -31.42655 -64.11092 7029 ft 257 kts 137°
2026-05-09 02:57 -31.43988 -64.09691 7918 ft 261 kts 137°
2026-05-09 02:57 -31.45339 -64.08269 8764 ft 266 kts 137°
2026-05-09 02:57 -31.46586 -64.06621 9346 ft 283 kts 125°
2026-05-09 02:58 -31.47751 -64.04661 9887 ft 300 kts 126°
2026-05-09 02:58 -31.49012 -64.02692 10611 ft 312 kts 128°
2026-05-09 02:58 -31.50357 -64.00647 11326 ft 323 kts 128°
2026-05-09 02:58 -31.51744 -63.98521 12176 ft 329 kts 129°
2026-05-09 02:59 -31.53127 -63.96403 12994 ft 334 kts 129°
2026-05-09 02:59 -31.54549 -63.94232 13823 ft 339 kts 130°
2026-05-09 02:59 -31.55997 -63.92022 14620 ft 344 kts 130°
2026-05-09 02:59 -31.57467 -63.89775 15422 ft 348 kts 130°
2026-05-09 03:00 -31.58946 -63.87516 16200 ft 353 kts 130°
2026-05-09 03:00 -31.60426 -63.85252 16951 ft 357 kts 131°
2026-05-09 03:00 -31.61945 -63.82928 17705 ft 360 kts 131°
2026-05-09 03:00 -31.63474 -63.80589 18433 ft 364 kts 131°
2026-05-09 03:01 -31.65001 -63.78252 19134 ft 367 kts 132°
2026-05-09 03:01 -31.66570 -63.75846 19837 ft 371 kts 132°
2026-05-09 03:01 -31.68121 -63.73467 20507 ft 374 kts 132°
2026-05-09 03:01 -31.69486 -63.71372 21091 ft 376 kts 133°
2026-05-09 03:02 -31.70799 -63.69358 21632 ft 379 kts 133°
2026-05-09 03:02 -31.72535 -63.66692 22317 ft 382 kts 133°
2026-05-09 03:02 -31.74161 -63.64191 22955 ft 384 kts 133°
2026-05-09 03:02 -31.75780 -63.61702 23551 ft 387 kts 134°
2026-05-09 03:03 -31.77457 -63.59121 24165 ft 390 kts 134°
2026-05-09 03:03 -31.79138 -63.56530 24790 ft 391 kts 134°
2026-05-09 03:03 -31.80799 -63.53970 25358 ft 393 kts 134°
2026-05-09 03:03 -31.82440 -63.51440 25911 ft 395 kts 134°
2026-05-09 03:04 -31.84106 -63.48868 26468 ft 396 kts 135°
2026-05-09 03:04 -31.85788 -63.46270 26993 ft 398 kts 135°
2026-05-09 03:04 -31.87502 -63.43622 27508 ft 400 kts 135°
2026-05-09 03:04 -31.89215 -63.40972 28019 ft 402 kts 135°
2026-05-09 03:05 -31.90921 -63.38333 28502 ft 403 kts 135°
2026-05-09 03:05 -31.92646 -63.35661 28987 ft 405 kts 135°
2026-05-09 03:05 -31.94370 -63.32990 29423 ft 407 kts 135°
2026-05-09 03:05 -31.96091 -63.30320 29885 ft 407 kts 135°
2026-05-09 03:06 -31.97815 -63.27645 30289 ft 409 kts 135°
2026-05-09 03:06 -31.99543 -63.24962 30731 ft 410 kts 135°
2026-05-09 03:06 -32.01266 -63.22284 31134 ft 411 kts 135°
2026-05-09 03:06 -32.03007 -63.19577 31531 ft 412 kts 135°
2026-05-09 03:07 -32.04841 -63.16725 31916 ft 414 kts 135°
2026-05-09 03:07 -32.06622 -63.13956 32309 ft 415 kts 135°
2026-05-09 03:07 -32.08446 -63.11111 32683 ft 416 kts 135°
2026-05-09 03:07 -32.10236 -63.08318 33085 ft 416 kts 135°
2026-05-09 03:08 -32.12071 -63.05453 33462 ft 417 kts 135°
2026-05-09 03:08 -32.13816 -63.02727 33822 ft 418 kts 135°
2026-05-09 03:08 -32.15572 -62.99981 34151 ft 420 kts 135°
2026-05-09 03:08 -32.17313 -62.97258 34456 ft 422 kts 135°
2026-05-09 03:09 -32.19088 -62.94480 34754 ft 424 kts 135°
2026-05-09 03:09 -32.20866 -62.91696 34987 ft 427 kts 135°
2026-05-09 03:09 -32.22651 -62.88900 35033 ft 431 kts 135°
2026-05-09 03:10 -32.26250 -62.83242 35033 ft 427 kts 135°
2026-05-09 03:10 -32.29785 -62.77681 35033 ft 426 kts 135°
2026-05-09 03:11 -32.33353 -62.72072 35032 ft 429 kts 135°
2026-05-09 03:11 -32.36906 -62.66465 35032 ft 425 kts 135°
2026-05-09 03:12 -32.40442 -62.60880 35033 ft 425 kts 135°
2026-05-09 03:12 -32.43979 -62.55293 35033 ft 427 kts 135°
2026-05-09 03:13 -32.49294 -62.46870 35033 ft 426 kts 135°
2026-05-09 03:13 -32.52839 -62.41247 35033 ft 426 kts 135°
2026-05-09 03:14 -32.56349 -62.35666 35032 ft 426 kts 135°
2026-05-09 03:14 -32.59882 -62.30045 35033 ft 427 kts 135°
2026-05-09 03:15 -32.63393 -62.24449 35032 ft 427 kts 135°
2026-05-09 03:15 -32.66945 -62.18775 35033 ft 430 kts 135°
2026-05-09 03:16 -32.70466 -62.13049 35032 ft 429 kts 133°
2026-05-09 03:16 -32.73815 -62.07240 35033 ft 428 kts 133°
2026-05-09 03:17 -32.77203 -62.01438 35033 ft 428 kts 133°
2026-05-09 03:17 -32.80609 -61.95593 35032 ft 431 kts 133°
2026-05-09 03:18 -32.83996 -61.89769 35033 ft 427 kts 133°
2026-05-09 03:18 -32.87375 -61.83958 35033 ft 428 kts 133°
2026-05-09 03:19 -32.90760 -61.78129 35032 ft 428 kts 133°
2026-05-09 03:19 -32.94147 -61.72282 35032 ft 430 kts 133°
2026-05-09 03:20 -32.97512 -61.66466 35032 ft 428 kts 133°
2026-05-09 03:20 -33.00877 -61.60643 35032 ft 429 kts 133°
2026-05-09 03:21 -33.04262 -61.54775 35032 ft 428 kts 133°
2026-05-09 03:21 -33.07620 -61.48943 35032 ft 428 kts 133°
2026-05-09 03:22 -33.10964 -61.43130 35033 ft 428 kts 133°
2026-05-09 03:22 -33.14319 -61.37291 35033 ft 429 kts 133°
2026-05-09 03:23 -33.17682 -61.31418 35032 ft 427 kts 133°
2026-05-09 03:23 -33.21020 -61.25589 35033 ft 426 kts 133°
2026-05-09 03:24 -33.24345 -61.19772 35032 ft 426 kts 133°
2026-05-09 03:24 -33.27678 -61.13932 35032 ft 427 kts 133°
2026-05-09 03:25 -33.31009 -61.08072 35032 ft 428 kts 132°
2026-05-09 03:25 -33.34338 -61.02178 35032 ft 426 kts 132°
2026-05-09 03:26 -33.37626 -60.96352 35032 ft 426 kts 132°
2026-05-09 03:26 -33.40924 -60.90482 35033 ft 427 kts 132°
2026-05-09 03:27 -33.44237 -60.84579 35032 ft 427 kts 132°
2026-05-09 03:27 -33.47546 -60.78670 35032 ft 426 kts 132°
2026-05-09 03:28 -33.50829 -60.72803 35033 ft 427 kts 132°
2026-05-09 03:28 -33.54100 -60.66948 35032 ft 427 kts 132°
2026-05-09 03:29 -33.57386 -60.61053 35032 ft 425 kts 132°
2026-05-09 03:29 -33.80263 -60.19773 35032 ft 427 kts 131°
2026-05-09 03:30 -33.83565 -60.13772 34952 ft 428 kts 131°
2026-05-09 03:30 -33.85218 -60.10778 34355 ft 427 kts 132°
2026-05-09 03:30 -33.86859 -60.07847 33794 ft 424 kts 132°
2026-05-09 03:31 -33.88500 -60.04926 33291 ft 420 kts 132°
2026-05-09 03:31 -33.90107 -60.02054 32782 ft 416 kts 132°
2026-05-09 03:31 -33.91709 -59.99185 32271 ft 413 kts 132°
2026-05-09 03:31 -33.93311 -59.96316 31758 ft 410 kts 132°
2026-05-09 03:32 -33.94902 -59.93465 31208 ft 408 kts 132°
2026-05-09 03:32 -33.96474 -59.90644 30737 ft 405 kts 132°
2026-05-09 03:32 -33.98051 -59.87822 30235 ft 411 kts 132°
2026-05-09 03:32 -33.99655 -59.84943 29713 ft 410 kts 131°
2026-05-09 03:33 -34.01240 -59.82088 29198 ft 407 kts 131°
2026-05-09 03:33 -34.02807 -59.79263 28687 ft 405 kts 131°
2026-05-09 03:33 -34.04357 -59.76471 28180 ft 403 kts 131°
2026-05-09 03:33 -34.05913 -59.73666 27670 ft 401 kts 131°
2026-05-09 03:34 -34.07459 -59.70878 27161 ft 399 kts 131°
2026-05-09 03:34 -34.08998 -59.68100 26654 ft 397 kts 131°
2026-05-09 03:34 -34.10531 -59.65331 26148 ft 395 kts 131°
2026-05-09 03:34 -34.12046 -59.62592 25646 ft 394 kts 131°
2026-05-09 03:35 -34.13558 -59.59857 25144 ft 393 kts 130°
2026-05-09 03:35 -34.15082 -59.57098 24636 ft 392 kts 130°
2026-05-09 03:35 -34.16616 -59.54318 24123 ft 391 kts 130°
2026-05-09 03:35 -34.18130 -59.51573 23616 ft 390 kts 130°
2026-05-09 03:36 -34.19609 -59.48889 23118 ft 389 kts 130°
2026-05-09 03:36 -34.21116 -59.46151 22610 ft 388 kts 129°
2026-05-09 03:36 -34.22589 -59.43439 22115 ft 399 kts 128°
2026-05-09 03:36 -34.24105 -59.40513 21575 ft 417 kts 127°
2026-05-09 03:37 -34.25632 -59.37552 21027 ft 420 kts 127°
2026-05-09 03:37 -34.27203 -59.34531 20473 ft 421 kts 126°
2026-05-09 03:37 -34.28763 -59.31547 19922 ft 422 kts 126°
2026-05-09 03:37 -34.30308 -59.28663 19374 ft 406 kts 127°
2026-05-09 03:38 -34.31818 -59.25861 18852 ft 390 kts 126°
2026-05-09 03:38 -34.33269 -59.23114 18342 ft 375 kts 126°
2026-05-09 03:38 -34.34638 -59.20511 17858 ft 362 kts 126°
2026-05-09 03:38 -34.35975 -59.17973 17384 ft 350 kts 126°
2026-05-09 03:39 -34.37283 -59.15490 16932 ft 356 kts 126°
2026-05-09 03:39 -34.38624 -59.12939 16443 ft 359 kts 125°
2026-05-09 03:39 -34.39956 -59.10394 15965 ft 359 kts 125°
2026-05-09 03:39 -34.41280 -59.07863 15488 ft 358 kts 125°
2026-05-09 03:40 -34.42608 -59.05323 15010 ft 358 kts 124°
2026-05-09 03:40 -34.43829 -59.02986 14569 ft 358 kts 124°
2026-05-09 03:40 -34.45143 -59.00467 14090 ft 357 kts 124°
2026-05-09 03:40 -34.46460 -58.97944 13611 ft 356 kts 124°
2026-05-09 03:41 -34.47794 -58.95383 13124 ft 356 kts 124°
2026-05-09 03:41 -34.49110 -58.92854 12641 ft 355 kts 124°
2026-05-09 03:41 -34.50396 -58.90382 12161 ft 343 kts 123°
2026-05-09 03:41 -34.51650 -58.87970 11711 ft 337 kts 123°
2026-05-09 03:42 -34.52890 -58.85583 11251 ft 337 kts 123°
2026-05-09 03:42 -34.54135 -58.83187 10792 ft 336 kts 123°
2026-05-09 03:42 -34.55228 -58.80700 10488 ft 330 kts 111°
2026-05-09 03:42 -34.55907 -58.78068 10241 ft 323 kts 105°
2026-05-09 03:43 -34.56559 -58.75498 9990 ft 318 kts 108°
2026-05-09 03:43 -34.57266 -58.72986 9738 ft 312 kts 108°
2026-05-09 03:43 -34.57839 -58.70957 9531 ft 307 kts 108°
2026-05-09 03:43 -34.58548 -58.68431 9228 ft 303 kts 108°
2026-05-09 03:44 -34.59218 -58.66060 8803 ft 297 kts 108°
2026-05-09 03:44 -34.59890 -58.63694 8220 ft 294 kts 108°
2026-05-09 03:44 -34.60551 -58.61360 7723 ft 291 kts 108°
2026-05-09 03:44 -34.61203 -58.59063 7348 ft 287 kts 107°
2026-05-09 03:45 -34.61853 -58.56772 6756 ft 284 kts 107°
2026-05-09 03:45 -34.62490 -58.54523 6336 ft 281 kts 107°
2026-05-09 03:45 -34.63128 -58.52271 5962 ft 281 kts 107°
2026-05-09 03:45 -34.63757 -58.50045 5600 ft 280 kts 107°
2026-05-09 03:46 -34.64384 -58.47832 5242 ft 268 kts 107°
2026-05-09 03:46 -34.64978 -58.45730 5039 ft 262 kts 107°
2026-05-09 03:46 -34.65572 -58.43624 4958 ft 260 kts 107°
2026-05-09 03:46 -34.66170 -58.41500 4857 ft 262 kts 107°
2026-05-09 03:47 -34.66767 -58.39389 4599 ft 263 kts 107°
2026-05-09 03:47 -34.67362 -58.37274 4316 ft 260 kts 107°
2026-05-09 03:47 -34.67954 -58.35173 4019 ft 257 kts 107°
2026-05-09 03:47 -34.68530 -58.33124 3755 ft 254 kts 107°
2026-05-09 03:48 -34.69097 -58.31106 3627 ft 247 kts 107°
2026-05-09 03:48 -34.69634 -58.29197 3533 ft 234 kts 107°
2026-05-09 03:48 -34.70070 -58.27316 3442 ft 229 kts 93°
2026-05-09 03:48 -34.69763 -58.25478 3337 ft 226 kts 57°
2026-05-09 03:49 -34.68607 -58.24284 3248 ft 217 kts 24°
2026-05-09 03:49 -34.67191 -58.23834 3184 ft 202 kts
2026-05-09 03:49 -34.65898 -58.24150 3104 ft 186 kts 332°
2026-05-09 03:49 -34.64994 -58.25253 2728 ft 191 kts 303°
2026-05-09 03:50 -34.64299 -58.26573 2552 ft 182 kts 307°
2026-05-09 03:50 -34.63567 -58.27854 2420 ft 185 kts 306°
2026-05-09 03:50 -34.62854 -58.29137 2260 ft 184 kts 306°
2026-05-09 03:50 -34.62138 -58.30421 2102 ft 183 kts 306°
2026-05-09 03:51 -34.61420 -58.31710 1899 ft 184 kts 306°
2026-05-09 03:51 -34.60706 -58.32995 1708 ft 187 kts 306°
2026-05-09 03:51 -34.60004 -58.34257 1433 ft 171 kts 306°
2026-05-09 03:51 -34.59368 -58.35399 1226 ft 158 kts 306°
2026-05-09 03:52 -34.58756 -58.36496 1000 ft 153 kts 306°
2026-05-09 03:52 -34.58158 -58.37557 782 ft 150 kts 306°
2026-05-09 03:52 -34.57567 -58.38596 547 ft 149 kts 305°
2026-05-09 03:52 -34.57005 -58.39632 300 ft 144 kts 305°
2026-05-09 03:53 -34.56440 -58.40653 76 ft 149 kts 305°
2026-05-09 03:53 -34.55917 -58.41584 27 ft 92 kts 303°
2026-05-09 03:53 -34.55687 -58.41995 27 ft 52 kts 305°
2026-05-09 03:53 -34.55500 -58.42336 27 ft 43 kts 303°
2026-05-09 03:54 -34.55395 -58.42501 27 ft 10 kts 347°
2026-05-09 03:54 -34.55359 -58.42450 27 ft 8 kts 92°
2026-05-09 03:54 -34.55368 -58.42386 27 ft 8 kts 103°
2026-05-09 03:54 -34.55405 -58.42313 27 ft 12 kts 127°
2026-05-09 03:55 -34.55463 -58.42220 27 ft 15 kts 127°
2026-05-09 03:55 -34.55533 -58.42108 27 ft 17 kts 126°
2026-05-09 03:55 -34.55606 -58.41982 27 ft 16 kts 124°
2026-05-09 03:55 -34.55663 -58.41881 27 ft 13 kts 123°
2026-05-09 03:56 -34.55711 -58.41792 27 ft 12 kts 124°
2026-05-09 03:56 -34.55762 -58.41685 27 ft 16 kts 117°
2026-05-09 03:56 -34.55819 -58.41550 27 ft 19 kts 116°
2026-05-09 03:56 -34.55877 -58.41412 27 ft 16 kts 117°
2026-05-09 03:57 -34.55904 -58.41309 27 ft 11 kts 50°
2026-05-09 03:57 -34.55839 -58.41284 27 ft 9 kts 330°
2026-05-09 03:57 -34.55806 -58.41338 27 ft 6 kts 303°
2026-05-09 03:57 -34.55777 -58.41335 27 ft 0 kts 32°
2026-05-09 03:58 -34.55774 -58.41333 27 ft 0 kts 33°
2026-05-09 03:58 -34.55764 -58.41325 27 ft 0 kts 32°